| time (UTC) | temp F | wind direction | speed knots | gust knots | rain 1hr in | rain 24hr in | rain mn in | humidity % | barometer mb |
| 20260503221502 | 40 | 292 | 0.0 | 1.7 | 0.01 | 0.01 | 0.01 | 82 | 1024.7 |
| 20260503220052 | 41 | 188 | 0.9 | 1.7 | 0.01 | 0.01 | 0.01 | 80 | 1024.7 |
| 20260503214507 | 41 | 123 | 0.0 | 3.5 | 0.00 | 0.00 | 0.00 | 76 | 1024.8 |
| 20260503213056 | 41 | 253 | 0.9 | 3.5 | 0.00 | 0.00 | 0.00 | 73 | 1024.8 |
| 20260503211551 | 41 | 160 | 1.7 | 2.6 | 0.00 | 0.00 | 0.00 | 72 | 1024.8 |
| 20260503210047 | 43 | 188 | 2.6 | 4.3 | 0.00 | 0.00 | 0.00 | 66 | 1024.6 |
| 20260503204600 | 43 | 206 | 0.9 | 5.2 | 0.00 | 0.00 | 0.00 | 64 | 1024.7 |
| 20260503203050 | 43 | 105 | 2.6 | 5.2 | 0.00 | 0.00 | 0.00 | 62 | 1024.5 |
| 20260503201553 | 43 | 130 | 0.0 | 3.5 | 0.00 | 0.00 | 0.00 | 62 | 1024.5 |
| 20260503200044 | 43 | 140 | 0.9 | 4.3 | 0.00 | 0.00 | 0.00 | 62 | 1024.5 |
| 20260503194619 | 44 | 348 | 1.7 | 4.3 | 0.00 | 0.00 | 0.00 | 60 | 1024.4 |
| 20260503193051 | 44 | 117 | 1.7 | 4.3 | 0.00 | 0.00 | 0.00 | 59 | 1024.2 |
| 20260503191551 | 44 | 49 | 1.7 | 4.3 | 0.00 | 0.00 | 0.00 | 58 | 1024.2 |
| 20260503184556 | 44 | 162 | 1.7 | 5.2 | 0.00 | 0.00 | 0.00 | 59 | 1024.2 |
| 20260503183050 | 43 | 63 | 3.5 | 8.7 | 0.00 | 0.00 | 0.00 | 60 | 1024.1 |
| 20260503181607 | 43 | 68 | 3.5 | 7.0 | 0.00 | 0.00 | 0.00 | 59 | 1024.2 |
| 20260503180053 | 43 | 58 | 2.6 | 5.2 | 0.00 | 0.00 | 0.00 | 60 | 1024.0 |
| 20260503174504 | 43 | 21 | 1.7 | 6.1 | 0.00 | 0.00 | 0.00 | 62 | 1023.9 |
| 20260503173054 | 42 | 70 | 1.7 | 7.0 | 0.00 | 0.00 | 0.00 | 65 | 1024.0 |
| 20260503171551 | 41 | 117 | 0.9 | 3.5 | 0.00 | 0.00 | 0.00 | 65 | 1024.1 |
| 20260503170113 | 41 | 105 | 0.9 | 3.5 | 0.00 | 0.00 | 0.00 | 66 | 1024.0 |
| 20260503130147 | 39 | 249 | 2.6 | 6.1 | 0.00 | 0.00 | 0.00 | 65 | 1023.9 |
| 20260503081504 | 40 | 162 | 0.9 | 9.6 | 0.00 | 0.01 | 0.00 | 61 | 1023.2 |
| 20260503071603 | 41 | 181 | 5.2 | 17.4 | 0.00 | 0.01 | 0.01 | 59 | 1022.7 |
| 20260503054541 | 41 | 191 | 4.3 | 10.4 | 0.00 | 0.01 | 0.01 | 60 | 1022.1 |
| 20260503053058 | 42 | 163 | 7.8 | 13.9 | 0.00 | 0.01 | 0.01 | 59 | 1022.0 |
| 20260503051651 | 42 | 240 | 4.3 | 13.0 | 0.00 | 0.01 | 0.01 | 58 | 1021.9 |
| 20260503050147 | 43 | 210 | 7.0 | 13.9 | 0.00 | 0.01 | 0.01 | 56 | 1021.8 |
| 20260503044615 | 44 | 195 | 7.0 | 13.0 | 0.00 | 0.01 | 0.01 | 54 | 1021.5 |
| 20260503043056 | 45 | 156 | 6.1 | 15.6 | 0.00 | 0.01 | 0.01 | 53 | 1021.4 |
| 20260503041608 | 46 | 199 | 7.8 | 17.4 | 0.00 | 0.01 | 0.01 | 52 | 1020.9 |
| 20260503040059 | 46 | 169 | 9.6 | 19.1 | 0.00 | 0.01 | 0.01 | 51 | 1020.9 |
| 20260503034554 | 46 | 121 | 7.8 | 24.3 | 0.00 | 0.01 | 0.01 | 51 | 1020.7 |
| 20260503033104 | 46 | 228 | 9.6 | 16.5 | 0.00 | 0.01 | 0.01 | 49 | 1020.6 |
| 20260503031545 | 47 | 163 | 7.8 | 17.4 | 0.00 | 0.01 | 0.01 | 48 | 1020.5 |
| 20260503030105 | 48 | 193 | 12.2 | 20.9 | 0.00 | 0.01 | 0.01 | 47 | 1020.6 |
| 20260503024601 | 49 | 166 | 9.6 | 22.6 | 0.00 | 0.01 | 0.01 | 47 | 1020.4 |
| 20260503023051 | 49 | 235 | 9.6 | 20.9 | 0.00 | 0.01 | 0.01 | 42 | 1020.1 |
| 20260503021551 | 49 | 205 | 7.0 | 20.9 | 0.00 | 0.01 | 0.01 | 44 | 1020.1 |
| 20260503014551 | 49 | 143 | 9.6 | 21.7 | 0.00 | 0.01 | 0.01 | 42 | 1020.1 |
| 20260503013043 | 49 | 198 | 8.7 | 24.3 | 0.00 | 0.01 | 0.01 | 42 | 1019.7 |
| 20260503011606 | 50 | 181 | 6.1 | 23.5 | 0.00 | 0.01 | 0.01 | 43 | 1019.6 |
| 20260503010048 | 48 | 231 | 10.4 | 20.0 | 0.00 | 0.01 | 0.01 | 43 | 1019.5 |
| 20260503004550 | 47 | 148 | 10.4 | 23.5 | 0.00 | 0.01 | 0.01 | 45 | 1019.4 |
| 20260503003102 | 48 | 136 | 9.6 | 20.9 | 0.00 | 0.01 | 0.01 | 43 | 1019.3 |
| 20260503001558 | 48 | 145 | 8.7 | 17.4 | 0.00 | 0.01 | 0.01 | 44 | 1019.2 |
| 20260503000048 | 50 | 124 | 7.8 | 20.9 | 0.00 | 0.01 | 0.01 | 43 | 1019.0 |
| 20260502234558 | 50 | 163 | 7.8 | 19.1 | 0.00 | 0.01 | 0.01 | 43 | 1019.1 |
| 20260502233048 | 50 | 271 | 6.1 | 19.1 | 0.00 | 0.01 | 0.01 | 42 | 1019.0 |
| 20260502231501 | 50 | 191 | 10.4 | 18.2 | 0.00 | 0.01 | 0.01 | 41 | 1018.8 |
| 20260502230052 | 50 | 152 | 7.0 | 15.6 | 0.00 | 0.01 | 0.01 | 42 | 1018.8 |
| 20260502224554 | 50 | 180 | 11.3 | 18.2 | 0.00 | 0.01 | 0.01 | 42 | 1018.7 |
| 20260502223101 | 47 | 161 | 7.8 | 21.7 | 0.00 | 0.01 | 0.01 | 44 | 1018.3 |